Location: Maynard F. Jordan Observatory
(44.9000°N, 68.6700°W)
Time: 07:44:48
(UTC-04:00)

Daily predictions for brighter satellites

Satellite Brightness Start Highest point End
(mag) Time Altitude Azimuth Time Altitude Azimuth Time Altitude Azimuth
Cosmos 1602 Rocket 3.8 20:40:26 10° S 20:44:48 55° E 20:49:11 10° NNE
Cosmos 1939 Rocket 3.1 20:41:19 10° SSE 20:45:26 63° ENE 20:49:31 10° N
YAOGAN 6 4.3 20:43:25 10° ESE 20:46:17 21° ENE 20:49:10 10° NNE
SeaSat 1 2.9 20:42:31 10° SE 20:47:16 50° NE 20:52:02 10° NNW
Lacrosse 5 rocket 3.2 20:45:10 10° W 20:48:44 33° NNW 20:52:29 10° NE
BREEZE-M DEB (TANK) 3.4 20:46:37 10° WNW 20:49:10 27° SW 20:51:04 10° SSE
H-2A R/B 4.0 20:48:02 10° E 20:50:22 13° ENE 20:52:44 10° NNE
Cosmos 1464 Rocket 4.3 20:44:37 10° NNW 20:50:45 74° W 20:56:53 10° S
COSMOS 2455 3.2 20:45:57 10° S 20:51:35 45° ESE 20:57:16 10° NE
SJ-11-01 4.5 20:48:35 10° S 20:53:14 75° WSW 20:57:56 10° NNW
Cosmos 1812 Rocket 3.8 20:49:20 10° N 20:53:40 56° ENE 20:58:00 10° SSE
Meteor 2-4 Rocket 4.3 20:49:17 10° SSW 20:55:08 67° WNW 21:01:05 10° N
CZ-4B R/B 4.4 20:51:08 10° NE 20:55:37 30° E 21:00:10 10° SSE
SPOT 1/Viking Rocket 4.4 20:54:03 10° SE 20:58:44 36° ENE 21:03:25 10° N
deb Chang Zheng 4 3.7 20:54:55 10° NNE 20:59:21 85° WNW 21:03:43 10° SSW
Cosmos 1943 Rocket 3.9 20:55:14 10° N 20:59:21 21° NE 21:03:28 10° E
Aureole 2 Rocket 3.4 20:55:53 10° SW 20:59:38 54° WNW 21:03:04 10° NNE
Cosmos 1943 4.0 20:56:02 10° SSE 21:00:58 31° ESE 21:05:55 10° NE
SL-8 R/B 4.4 21:00:42 10° W 21:05:28 56° N 21:10:14 10° ENE
ATLAS 3B R/B 3.5 20:58:49 10° S 21:05:33 34° ESE 21:12:11 10° NE
H-2A R/B 2.8 21:04:15 10° S 21:08:25 53° W 21:12:44 10° NNW
Cosmos 1346 Rocket 4.2 21:06:09 11° SE 21:08:48 21° E 21:11:47 10° NE
Cosmos 1634 Rocket 4.4 21:04:07 10° N 21:10:03 47° ENE 21:15:43 11° SSE
Cosmos 2034 Rocket 4.4 21:04:19 10° NNW 21:10:40 70° W 21:16:56 10° S
DEBRIS 4.0 21:09:04 10° WNW 21:13:55 30° SW 21:15:59 12° SSE
Meteor 2-12 Rocket 4.4 21:09:59 10° N 21:16:07 76° E 21:22:10 10° SSE
Cosmos 1626 Rocket 3.9 21:12:35 10° SSW 21:17:00 69° W 21:21:25 10° N
GRACE-1 4.4 21:15:39 10° N 21:18:31 61° W 21:21:20 10° SSW
GRACE-2 4.4 21:16:06 10° N 21:18:57 61° W 21:21:46 10° SSW
USA 245 4.4 21:13:31 11° SSE 21:19:02 55° ENE 21:23:52 10° N
USA 234 3.4 21:16:31 11° ESE 21:22:53 78° NE 21:29:28 10° NW
ERS-1 Rocket 4.4 21:20:06 10° SSW 21:24:41 36° W 21:29:19 10° NNW
ISS -3.4 21:22:33 10° SW 21:25:46 60° SE 21:29:00 10° ENE
UNK 4.2 21:21:49 10° NNE 21:27:15 71° ESE 21:32:57 10° S
CZ-4 R/B 4.4 21:24:11 10° NNE 21:28:55 42° E 21:33:12 12° SSE
Lacrosse 4 Rocket 2.0 21:30:12 11° S 21:33:36 33° ESE 21:37:17 10° NE
PSLV R/B 3.8 21:30:38 10° WSW 21:33:59 42° S 21:36:20 17° ESE
Envisat 3.6 21:29:13 10° S 21:34:11 55° W 21:39:12 10° NNW
Cosmos 1953 Rocket 3.9 21:32:29 15° SSE 21:35:55 46° E 21:40:11 10° NNE
ARGOS 3.3 21:32:56 15° SSE 21:37:20 64° ENE 21:42:43 10° N
Cosmos 407 Rocket 3.9 21:33:00 10° S 21:37:55 42° ESE 21:42:50 10° NE
Cosmos 2346 Rocket 4.5 21:32:09 10° S 21:38:16 67° E 21:44:22 10° NNE
SPOT 5 3.3 21:34:40 10° S 21:38:56 51° W 21:43:11 10° NNW
Cosmos 1766 4.1 21:37:16 10° N 21:41:03 37° ENE 21:43:11 21° SE
Cosmos 2369 Rocket 2.2 21:36:54 10° NNW 21:42:37 90° ENE 21:46:52 18° SSE
Cosmos-2242 4.2 21:41:57 10° NNE 21:45:51 30° ENE 21:48:03 20° ESE
SL-27 R/B 4.3 21:46:49 15° E 21:46:49 15° E 21:48:34 10° ENE
Terra 2.7 21:48:14 19° SE 21:51:01 37° ENE 21:55:24 10° N
Lacrosse 5 4.4 21:48:04 10° NW 21:51:51 21° N 21:55:39 10° NE
NOAA 11 4.1 21:53:20 19° SSE 21:57:19 85° ENE 22:02:47 10° NNW
USA 81 4.4 21:57:36 10° N 22:02:51 64° W 22:07:22 14° S
Atlas Centaur 2 3.8 22:00:01 10° SW 22:06:24 28° S 22:09:41 22° SE
Cosmos 1758 Rocket 3.5 22:06:49 20° S 22:09:52 86° E 22:14:15 10° N
CZ-4C R/B 3.4 22:07:53 26° SSE 22:10:11 85° WSW 22:14:15 10° NNW
Cosmos 2263 4.2 22:05:23 10° NNW 22:11:01 76° WSW 22:14:27 24° SSE
Cosmos 1805 4.1 22:08:46 10° N 22:12:26 35° ENE 22:13:38 28° ESE
CARTOSAT-1 3.7 22:11:13 30° SE 22:13:13 61° ENE 22:17:30 10° N
DELTA 2 DEB (DPAF) 4.2 22:11:56 25° S 22:14:30 78° WSW 22:19:01 10° NNW
COSMOS 2406 3.9 22:15:41 27° SE 22:17:42 34° ESE 22:22:50 10° NE
Cosmos 1900 4.3 22:12:35 10° SSW 22:17:44 76° ESE 22:22:52 10° NE
YAOGAN 6 4.3 22:17:10 14° SSW 22:19:43 29° W 22:23:02 10° NW
SeaSat 1 4.1 22:21:31 12° SSW 22:24:59 25° WSW 22:29:03 10° NW
Geosat 3.9 22:20:01 10° NNE 22:25:03 72° ESE 22:28:49 18° SSW
Cosmos 1953 2.4 22:22:12 10° N 22:26:11 63° E 22:27:23 41° SE
H-2A R/B 1.9 22:26:31 30° SSE 22:29:00 89° ENE 22:34:07 10° NNW
Lacrosse 5 rocket 4.4 22:26:29 10° NW 22:29:04 16° N 22:31:46 10° NNE
Cosmos 1544 4.2 22:29:26 10° N 22:32:50 31° ENE 22:33:25 30° E
Cosmos 1570 Rocket 4.2 22:27:53 10° NNW 22:33:13 62° ENE 22:35:37 32° SE
COSMOS 2455 4.4 22:32:06 10° WSW 22:37:38 37° NW 22:43:12 10° NNE
Cosmos 1842 Rocket 3.8 22:34:17 10° N 22:38:36 54° ENE 22:39:50 40° SE
Cosmos 1092 Rocket 4.4 22:37:49 30° SE 22:40:32 48° E 22:46:31 10° NNE
SAR-Lupe-2 4.0 22:40:04 40° SSW 22:41:01 55° W 22:44:34 10° NNW
Cosmos 1943 Rocket 2.2 22:38:09 10° NNW 22:43:42 75° WSW 22:46:09 35° S
Cosmos 1943 4.4 22:39:27 10° SW 22:44:50 43° WNW 22:50:17 10° NNE
SL-8 R/B 3.8 22:43:31 10° WNW 22:48:22 78° NNE 22:50:59 27° ESE
Cosmos 1707 4.2 22:48:55 24° E 22:48:55 24° E 22:52:00 10° NE
Cosmos 676 Rocket 4.4 22:44:54 12° SSW 22:49:44 62° WNW 22:55:02 10° NNE
Cosmos 1140 Rocket 3.4 22:48:29 34° S 22:50:44 71° ESE 22:55:59 10° NNE
Nadezhda 4 Rocket 4.0 22:47:43 30° S 22:51:01 76° E 22:57:21 10° N
Spot 2 4.4 22:48:25 10° NNE 22:53:13 79° WNW 22:55:50 29° SSW
ATLAS 3B R/B 3.4 22:48:21 10° SW 22:56:00 64° NW 23:03:25 10° NNE
DMSP B5D2-2 4.1 22:50:48 10° NNE 22:56:06 80° WNW 22:58:58 28° SSW
Cosmos 1842 4.1 22:54:29 27° SW 22:56:13 46° WNW 23:00:01 10° N
Cosmos 1656 Rocket 3.8 22:51:06 10° NNW 22:56:49 71° ENE 22:59:04 37° SE
IGS 5A 4.1 22:58:19 36° SSW 22:59:33 48° W 23:03:36 10° NNW
ISS -1.4 22:59:24 10° W 23:02:23 32° NNW 23:05:23 10° NE
NOSS 3-2 (A) 4.2 23:02:45 31° SE 23:03:27 32° ESE 23:09:07 10° NE
Cosmos 2084 3.6 23:02:11 10° NW 23:06:15 54° SW 23:06:47 50° SSW
USA 234 4.1 23:03:51 26° SSW 23:06:15 34° SW 23:12:07 10° WNW
Lacrosse 4 Rocket 3.4 23:08:54 10° WSW 23:12:21 26° NW 23:15:53 10° N
Cosmos 1758 4.4 23:08:42 10° NNW 23:12:33 39° W 23:13:37 32° SW
H-2A R/B 4.0 23:10:04 10° NE 23:12:29 21° E 23:12:29 21° E
CZ-4C R/B 3.0 23:13:38 31° ESE 23:13:38 31° ESE 23:18:41 10° NE
Cosmos 614 Rocket 3.9 23:16:08 46° S 23:17:41 77° ESE 23:22:55 10° NNE
Cosmos 1733 3.3 23:13:56 10° N 23:17:47 62° E 23:17:56 61° E
COSMOS 2487 2.9 23:18:18 54° ENE 23:18:18 54° ENE 23:21:23 10° NNE
Meteor 2-5 Rocket 3.8 23:17:29 43° SSE 23:19:23 67° E 23:25:07 10° NNE
Cosmos 2221 2.8 23:16:27 10° N 23:20:41 50° ENE 23:21:11 47° ESE
SL-27 R/B 4.0 23:20:32 25° W 23:21:34 30° WNW 23:24:35 10° N
Cosmos 1818 4.4 23:19:57 10° NNW 23:25:14 45° NE 23:27:53 26° ESE
Cosmos 2369 Rocket 4.4 23:23:10 10° WNW 23:25:46 13° W 23:28:21 10° SW
Terra 3.4 23:27:07 21° SW 23:28:50 26° W 23:32:51 10° NW
Cosmos 2026 Rocket 4.0 23:28:52 43° SSE 23:30:44 63° E 23:36:43 10° NNE
Cosmos 2195 Rocket 4.5 23:29:25 43° SSE 23:31:32 73° E 23:37:47 10° NNE
Meteor 2-1 Rocket 4.5 23:26:13 10° N 23:32:06 62° ENE 23:33:56 42° SE
Cosmos 1607 3.9 23:29:24 28° SW 23:32:58 90° WNW 23:39:13 10° NE
USA 238 DEB 3.9 23:28:44 10° SW 23:35:45 74° NW 23:42:51 10° NE
USA 238 3.9 23:28:56 11° SW 23:35:51 75° NW 23:42:56 10° NE
Lacrosse 5 3.7 23:31:50 10° NW 23:36:13 28° NNE 23:40:35 10° E
Cosmos 1627 Rocket 4.4 23:36:00 44° S 23:38:03 80° E 23:44:12 10° N
Cosmos 2228 Rocket 3.9 23:38:31 10° N 23:42:38 37° ENE 23:43:10 36° E
CZ-4B R/B 2.2 23:44:03 48° ENE 23:44:03 48° ENE 23:47:31 10° N
Okean 3 Rocket 3.7 23:43:49 54° SW 23:44:33 65° W 23:48:58 10° N
Cosmos 1470 3.4 23:41:21 10° NNW 23:45:05 44° W 23:45:11 44° W
Meteor 1-16 Rocket 4.2 23:42:43 10° NNW 23:48:21 85° W 23:49:54 51° S
Cosmos 1340 3.3 23:51:21 46° W 23:51:35 46° WNW 23:55:16 10° N
CZ-4C R/B 3.6 23:54:17 50° NNW 23:54:17 50° NNW 23:56:46 10° NNW
Cosmos 1980 Rocket 4.4 23:51:56 10° N 23:55:56 19° NE 23:59:55 10° E
